Details From LIPR - Rimini Mil
To LIMJ - Genova Sestri
Flight Number -
Tags generated
Created
Modified
Stats Distance 164 nm / 305 km
Max Altitude 14,200 ft / 4,328 m
Waypoints 3
Social Downloads 1
Likes 0
Share VATSIM

Download

Looking for another format? Having issues loading an existing format? Contact us
Advertisement - Login to hide

Notes

Basic altitude profile: - Ascent Rate: 2500ft/min - Ascent Speed: 250kts - Cruise Altitude: 35000ft - Cruise Speed: 420kts - Descent Rate: 1500ft/min - Descent Speed: 250kts Options: - Use NATs: yes - Use PACOTS: yes - Use low airways: yes - Use high airways: yes

Route

LIPR BEROK LIMJ

ID Type Via Altitude Latitude Longitude Leg Dist Tot Dist Heading (true) Name
O LIPR APT - 0 ft / 0 m 44.02029˚ 12.61175˚ - 0 nm - Rimini Mil
BEROK FIX - 14,200 ft / 4,328 m 44.16556˚ 10.35167˚ 97 nm 97 nm 276° / 274° -
O LIMJ APT - 0 ft / 0 m 44.41196˚ 8.84187˚ 66 nm 164 nm 283° / 282° Genova Sestri

Altitude Profile

Weather

Temperature
Clouds and Precipitation
Forecast for 2017-02-27 06:00 UTC. Updated 2 hours ago
Winds

LIPR

Details ICAO LIPR (RMI)
Name Rimini Mil
Region Italy
Timezone Europe/Rome (UTC+1.0)
Stats Elevation 41 ft / 12 m (AMSL)
Location 44.020286° 12.611746°
Runways 1
Magnetic Variation 3.080° E

METAR

LIPR 270615Z 19001KT CAVOK 00/00 Q1018

Decode

TAF

Not found

Departure Runways

ID Width Length Bearing (true) Bearing (mag) Surface Threshold Offset Overrun Length
13 148 ft / 45 m 9,818 ft / 2,992 m 127.79° 124.71° Asphalt 1,030 ft / 314 m 846 ft / 258 m
31 148 ft / 45 m 9,818 ft / 2,992 m 307.81° 304.73° Asphalt 1,006 ft / 307 m 376 ft / 115 m

LIMJ

Details ICAO LIMJ (GOA)
Name Genova Sestri
Region Italy
Timezone Unknown (UTC+0.0)
Stats Elevation 13 ft / 4 m (AMSL)
Location 44.411957° 8.841866°
Runways 1
Magnetic Variation 2.297° E

METAR

LIMJ 270620Z VRB02KT 9999 FEW019 BKN025 10/05 Q1017

Decode

TAF

TAF LIMJ 270500Z 2706/2806 04005KT 9999 SCT030 TEMPO 2710/2806 RA BKN012 BKN060

Decode

Destination Runways

ID Width Length Bearing (true) Bearing (mag) Surface Threshold Offset Overrun Length
10 148 ft / 45 m 9,574 ft / 2,918 m 105.39° 103.09° Asphalt 0 ft / 0 m 0 ft / 0 m
28 148 ft / 45 m 9,574 ft / 2,918 m 285.41° 283.11° Asphalt 538 ft / 164 m 0 ft / 0 m

Approach Navaids

Runway Type Ident Frequency Range Bearing (true) Bearing (mag) Slope Elevation
28 Localiser GSE 109.30 MHz 18 nm / 33 km 287.30° 285.00° - 9 ft / 3 m (AMSL)
28 Glidescope GSE 109.30 MHz 10 nm / 19 km 287.30° 285.00° 3.17° 26 ft / 8 m (AMSL)
28 DME GSE 109.30 MHz 18 nm / 33 km - - - 26 ft / 8 m (AMSL)